| time (UTC) | temp C | wind direction | speed KPH | gust KPH | rain 1hr cm | rain 24hr cm | rain mn cm | humidity % | barometer mb |
| 20260504151002 | 17 | 9 | 17.7 | 37.0 | 0.00 | 0.00 | 0.00 | 70 | 1019.6 |
| 20260504150503 | 17 | 7 | 17.7 | 37.0 | 0.00 | 0.00 | 0.00 | 71 | 1019.6 |
| 20260504141003 | 18 | 12 | 20.9 | 37.0 | 0.00 | 0.00 | 0.00 | 68 | 1020.0 |
| 20260504140503 | 18 | 12 | 17.7 | 37.0 | 0.00 | 0.00 | 0.00 | 67 | 1020.0 |
| 20260504130503 | 18 | 15 | 19.3 | 35.4 | 0.00 | 0.00 | 0.00 | 69 | 1020.5 |
| 20260504110503 | 18 | 359 | 14.5 | 29.0 | 0.00 | 0.00 | 0.00 | 61 | 1020.8 |
| 20260504100503 | 18 | 360 | 16.1 | 29.0 | 0.00 | 0.00 | 0.00 | 59 | 1021.8 |
| 20260504082003 | 16 | 352 | 16.1 | 35.4 | 0.00 | 0.00 | 0.00 | 69 | 1021.8 |
| 20260504081503 | 16 | 353 | 17.7 | 35.4 | 0.00 | 0.00 | 0.00 | 69 | 1021.7 |
| 20260504081001 | 16 | 356 | 19.3 | 35.4 | 0.00 | 0.00 | 0.00 | 69 | 1021.5 |
| 20260504080501 | 16 | 354 | 17.7 | 30.6 | 0.00 | 0.00 | 0.00 | 71 | 1021.5 |
| 20260504050502 | 12 | 343 | 6.4 | 12.9 | 0.00 | 0.00 | 0.00 | 85 | 1021.0 |
| 20260504050002 | 12 | 346 | 4.8 | 11.3 | 0.00 | 0.00 | 0.00 | 85 | 1020.9 |
| 20260504045501 | 12 | 354 | 3.2 | 9.7 | 0.00 | 0.00 | 0.00 | 85 | 1020.9 |
| 20260504045001 | 12 | 354 | 4.8 | 9.7 | 0.00 | 0.00 | 0.00 | 85 | 1021.0 |
| 20260504044502 | 12 | 356 | 0.0 | 6.4 | 0.00 | 0.00 | 0.00 | 85 | 1020.8 |
| 20260504044002 | 11 | 32 | 0.0 | 12.9 | 0.00 | 0.00 | 0.00 | 79 | 1020.9 |
| 20260504043503 | 11 | 32 | 0.0 | 12.9 | 0.00 | 0.00 | 0.00 | 79 | 1020.7 |
| 20260504043002 | 11 | 32 | 0.0 | 12.9 | 0.00 | 0.00 | 0.00 | 79 | 1020.7 |
| 20260504042502 | 11 | 32 | 0.0 | 12.9 | 0.00 | 0.00 | 0.00 | 79 | 1020.7 |
| 20260504042002 | 11 | 32 | 0.0 | 12.9 | 0.00 | 0.00 | 0.00 | 79 | 1020.7 |
| 20260504041501 | 11 | 32 | 0.0 | 12.9 | 0.00 | 0.00 | 0.00 | 79 | 1020.7 |
| 20260504041001 | 11 | 32 | 0.0 | 12.9 | 0.00 | 0.00 | 0.00 | 79 | 1020.6 |
| 20260504040501 | 11 | 32 | 0.0 | 12.9 | 0.00 | 0.00 | 0.00 | 79 | 1020.5 |
| 20260504040001 | 11 | 32 | 0.0 | 12.9 | 0.00 | 0.00 | 0.00 | 79 | 1020.5 |
| 20260504035501 | 11 | 357 | 0.0 | 9.7 | 0.00 | 0.00 | 0.00 | 79 | 1020.6 |
| 20260504035001 | 11 | 348 | 6.4 | 12.9 | 0.00 | 0.00 | 0.00 | 79 | 1020.6 |
| 20260504034501 | 11 | 347 | 6.4 | 14.5 | 0.00 | 0.00 | 0.00 | 79 | 1020.6 |
| 20260504034001 | 11 | 350 | 6.4 | 14.5 | 0.00 | 0.00 | 0.00 | 80 | 1020.4 |
| 20260504033501 | 11 | 350 | 6.4 | 11.3 | 0.00 | 0.00 | 0.00 | 80 | 1020.5 |
| 20260504033001 | 11 | 348 | 6.4 | 11.3 | 0.00 | 0.00 | 0.00 | 80 | 1020.5 |
| 20260504032502 | 11 | 348 | 6.4 | 12.9 | 0.00 | 0.00 | 0.00 | 81 | 1020.5 |
| 20260504032001 | 11 | 347 | 6.4 | 14.5 | 0.00 | 0.00 | 0.00 | 80 | 1020.5 |
| 20260504031501 | 11 | 345 | 6.4 | 14.5 | 0.00 | 0.00 | 0.00 | 80 | 1020.6 |
| 20260504031001 | 11 | 346 | 4.8 | 11.3 | 0.00 | 0.00 | 0.00 | 81 | 1020.6 |
| 20260504030501 | 11 | 360 | 3.2 | 9.7 | 0.00 | 0.00 | 0.00 | 82 | 1020.6 |
| 20260504030001 | 11 | 359 | 3.2 | 9.7 | 0.00 | 0.00 | 0.00 | 82 | 1020.8 |
| 20260504025502 | 11 | 358 | 3.2 | 8.0 | 0.00 | 0.00 | 0.00 | 82 | 1020.7 |
| 20260504025002 | 11 | 358 | 4.8 | 11.3 | 0.00 | 0.00 | 0.00 | 83 | 1020.8 |
| 20260504024502 | 12 | 360 | 6.4 | 11.3 | 0.00 | 0.00 | 0.00 | 83 | 1020.7 |
| 20260504024002 | 12 | 1 | 6.4 | 11.3 | 0.00 | 0.00 | 0.00 | 83 | 1020.7 |
| 20260504023501 | 11 | 355 | 6.4 | 12.9 | 0.00 | 0.00 | 0.00 | 84 | 1020.7 |
| 20260504023001 | 11 | 358 | 6.4 | 12.9 | 0.00 | 0.00 | 0.00 | 84 | 1020.7 |
| 20260504022501 | 11 | 3 | 4.8 | 9.7 | 0.00 | 0.00 | 0.00 | 85 | 1020.8 |
| 20260504022002 | 11 | 1 | 4.8 | 9.7 | 0.00 | 0.00 | 0.00 | 85 | 1020.8 |
| 20260504021502 | 11 | 5 | 4.8 | 9.7 | 0.00 | 0.00 | 0.00 | 85 | 1020.8 |
| 20260504021002 | 11 | 18 | 4.8 | 8.0 | 0.00 | 0.00 | 0.00 | 85 | 1020.7 |
| 20260504020502 | 11 | 17 | 4.8 | 9.7 | 0.00 | 0.00 | 0.00 | 85 | 1020.9 |
| 20260504020002 | 11 | 23 | 3.2 | 9.7 | 0.00 | 0.00 | 0.00 | 85 | 1020.9 |
| 20260504015502 | 11 | 19 | 3.2 | 6.4 | 0.00 | 0.00 | 0.00 | 85 | 1020.8 |
| 20260504015001 | 11 | 4 | 3.2 | 6.4 | 0.00 | 0.00 | 0.00 | 84 | 1020.7 |
| 20260504014502 | 11 | 24 | 1.6 | 6.4 | 0.00 | 0.00 | 0.00 | 84 | 1020.6 |
| 20260504014002 | 11 | 36 | 3.2 | 6.4 | 0.00 | 0.00 | 0.00 | 84 | 1020.7 |
| 20260504013501 | 11 | 32 | 3.2 | 4.8 | 0.00 | 0.00 | 0.00 | 84 | 1020.7 |
| 20260504013001 | 12 | 24 | 3.2 | 6.4 | 0.00 | 0.00 | 0.00 | 83 | 1020.6 |
| 20260504012502 | 12 | 9 | 1.6 | 6.4 | 0.00 | 0.00 | 0.00 | 84 | 1020.5 |
| 20260504012002 | 12 | 350 | 1.6 | 8.0 | 0.00 | 0.00 | 0.00 | 84 | 1020.5 |
| 20260504011502 | 12 | 351 | 3.2 | 8.0 | 0.00 | 0.00 | 0.00 | 83 | 1020.6 |
| 20260504011002 | 12 | 348 | 3.2 | 9.7 | 0.00 | 0.00 | 0.00 | 83 | 1020.5 |
| 20260504010501 | 12 | 341 | 4.8 | 9.7 | 0.00 | 0.00 | 0.00 | 83 | 1020.5 |
| 20260504010002 | 12 | 341 | 3.2 | 8.0 | 0.00 | 0.00 | 0.00 | 83 | 1020.5 |
| 20260504005502 | 12 | 347 | 3.2 | 8.0 | 0.00 | 0.00 | 0.00 | 84 | 1020.5 |
| 20260504005002 | 12 | 349 | 3.2 | 8.0 | 0.00 | 0.00 | 0.00 | 84 | 1020.4 |
| 20260504004502 | 12 | 347 | 1.6 | 6.4 | 0.00 | 0.00 | 0.00 | 84 | 1020.4 |
| 20260504004002 | 12 | 347 | 1.6 | 6.4 | 0.00 | 0.00 | 0.00 | 84 | 1020.6 |
| 20260504003502 | 12 | 348 | 3.2 | 6.4 | 0.00 | 0.00 | 0.00 | 83 | 1020.4 |
| 20260504003002 | 12 | 360 | 3.2 | 9.7 | 0.00 | 0.00 | 0.00 | 83 | 1020.5 |
| 20260504002502 | 12 | 8 | 4.8 | 9.7 | 0.00 | 0.00 | 0.00 | 83 | 1020.4 |
| 20260504002002 | 12 | 360 | 3.2 | 11.3 | 0.00 | 0.00 | 0.00 | 84 | 1020.5 |
| 20260504001501 | 12 | 345 | 3.2 | 11.3 | 0.00 | 0.00 | 0.00 | 85 | 1020.6 |
| 20260504001002 | 12 | 335 | 4.8 | 9.7 | 0.00 | 0.00 | 0.00 | 85 | 1020.6 |
| 20260504000502 | 12 | 335 | 4.8 | 12.9 | 0.00 | 0.00 | 0.00 | 85 | 1020.7 |
| 20260504000002 | 12 | 339 | 4.8 | 12.9 | 0.00 | 0.00 | 0.00 | 85 | 1020.8 |
| 20260503235502 | 12 | 339 | 4.8 | 8.0 | 0.00 | 0.00 | 0.00 | 85 | 1020.9 |
| 20260503235002 | 12 | 344 | 3.2 | 8.0 | 0.00 | 0.00 | 0.00 | 85 | 1020.8 |
| 20260503234502 | 12 | 348 | 3.2 | 8.0 | 0.00 | 0.00 | 0.00 | 85 | 1020.9 |
| 20260503234001 | 12 | 355 | 3.2 | 8.0 | 0.00 | 0.00 | 0.00 | 85 | 1020.9 |
| 20260503233502 | 12 | 9 | 1.6 | 6.4 | 0.00 | 0.00 | 0.00 | 84 | 1021.1 |
| 20260503233001 | 12 | 359 | 3.2 | 6.4 | 0.00 | 0.00 | 0.00 | 84 | 1021.2 |
| 20260503232502 | 12 | 11 | 3.2 | 6.4 | 0.00 | 0.00 | 0.00 | 84 | 1021.2 |
| 20260503232002 | 12 | 20 | 4.8 | 6.4 | 0.00 | 0.00 | 0.00 | 84 | 1021.2 |
| 20260503231502 | 12 | 15 | 4.8 | 6.4 | 0.00 | 0.00 | 0.00 | 84 | 1021.2 |
| 20260503231002 | 12 | 14 | 4.8 | 8.0 | 0.00 | 0.00 | 0.00 | 84 | 1021.3 |
| 20260503230502 | 12 | 11 | 4.8 | 8.0 | 0.00 | 0.00 | 0.00 | 83 | 1021.3 |
| 20260503230002 | 12 | 21 | 3.2 | 6.4 | 0.00 | 0.00 | 0.00 | 83 | 1021.3 |
| 20260503225502 | 12 | 37 | 3.2 | 4.8 | 0.00 | 0.00 | 0.00 | 82 | 1021.3 |
| 20260503225002 | 12 | 34 | 3.2 | 6.4 | 0.00 | 0.00 | 0.00 | 82 | 1021.3 |
| 20260503224502 | 12 | 30 | 3.2 | 6.4 | 0.00 | 0.00 | 0.00 | 82 | 1021.4 |
| 20260503224002 | 12 | 18 | 3.2 | 6.4 | 0.00 | 0.00 | 0.00 | 82 | 1021.6 |
| 20260503223502 | 12 | 344 | 3.2 | 6.4 | 0.00 | 0.00 | 0.00 | 82 | 1021.4 |
| 20260503223002 | 12 | 341 | 3.2 | 6.4 | 0.00 | 0.00 | 0.00 | 81 | 1021.4 |
| 20260503222502 | 12 | 359 | 3.2 | 8.0 | 0.00 | 0.00 | 0.00 | 81 | 1021.5 |
| 20260503222002 | 12 | 12 | 3.2 | 8.0 | 0.00 | 0.00 | 0.00 | 81 | 1021.5 |
| 20260503221502 | 12 | 10 | 3.2 | 8.0 | 0.00 | 0.00 | 0.00 | 81 | 1021.5 |
| 20260503221002 | 12 | 357 | 3.2 | 9.7 | 0.00 | 0.00 | 0.00 | 81 | 1021.5 |
| 20260503220502 | 12 | 343 | 4.8 | 9.7 | 0.00 | 0.00 | 0.00 | 81 | 1021.5 |
| 20260503220003 | 12 | 347 | 3.2 | 9.7 | 0.00 | 0.00 | 0.00 | 82 | 1021.5 |
| 20260503215502 | 12 | 355 | 3.2 | 9.7 | 0.00 | 0.00 | 0.00 | 82 | 1021.5 |
| 20260503215002 | 12 | 2 | 3.2 | 9.7 | 0.00 | 0.00 | 0.00 | 82 | 1021.5 |
| 20260503214502 | 12 | 358 | 3.2 | 9.7 | 0.00 | 0.00 | 0.00 | 82 | 1021.6 |
| 20260503214002 | 12 | 349 | 4.8 | 9.7 | 0.00 | 0.00 | 0.00 | 82 | 1021.5 |
| 20260503213502 | 12 | 350 | 4.8 | 9.7 | 0.00 | 0.00 | 0.00 | 82 | 1021.5 |
| 20260503213002 | 12 | 349 | 3.2 | 8.0 | 0.00 | 0.00 | 0.00 | 83 | 1021.5 |
| 20260503212502 | 12 | 347 | 3.2 | 8.0 | 0.00 | 0.00 | 0.00 | 83 | 1021.5 |
| 20260503212002 | 12 | 355 | 3.2 | 8.0 | 0.00 | 0.00 | 0.00 | 84 | 1021.6 |
| 20260503211502 | 12 | 1 | 1.6 | 6.4 | 0.00 | 0.00 | 0.00 | 84 | 1021.5 |
| 20260503211002 | 12 | 6 | 1.6 | 8.0 | 0.00 | 0.00 | 0.00 | 84 | 1021.6 |
| 20260503210502 | 12 | 2 | 3.2 | 8.0 | 0.00 | 0.00 | 0.00 | 84 | 1021.6 |
| 20260503210002 | 12 | 350 | 3.2 | 8.0 | 0.00 | 0.00 | 0.00 | 84 | 1021.5 |
| 20260503205502 | 12 | 346 | 3.2 | 8.0 | 0.00 | 0.00 | 0.00 | 84 | 1021.5 |
| 20260503205002 | 12 | 354 | 1.6 | 4.8 | 0.00 | 0.00 | 0.00 | 84 | 1021.6 |
| 20260503204502 | 12 | 355 | 1.6 | 4.8 | 0.00 | 0.00 | 0.00 | 84 | 1021.5 |
| 20260503204002 | 12 | 348 | 1.6 | 4.8 | 0.00 | 0.00 | 0.00 | 85 | 1021.5 |
| 20260503203502 | 12 | 348 | 0.0 | 4.8 | 0.00 | 0.00 | 0.00 | 85 | 1021.6 |
| 20260503203002 | 13 | 345 | 1.6 | 4.8 | 0.00 | 0.00 | 0.00 | 85 | 1021.4 |
| 20260503202502 | 13 | 352 | 3.2 | 6.4 | 0.00 | 0.00 | 0.00 | 85 | 1021.3 |
| 20260503202002 | 13 | 351 | 1.6 | 6.4 | 0.00 | 0.00 | 0.00 | 85 | 1021.4 |
| 20260503201502 | 13 | 338 | 1.6 | 4.8 | 0.00 | 0.00 | 0.00 | 85 | 1021.3 |
| 20260503201002 | 13 | 337 | 1.6 | 4.8 | 0.00 | 0.00 | 0.00 | 85 | 1021.3 |
| 20260503200502 | 13 | 342 | 0.0 | 3.2 | 0.00 | 0.00 | 0.00 | 85 | 1021.3 |
| 20260503200002 | 13 | 339 | 1.6 | 3.2 | 0.00 | 0.00 | 0.00 | 85 | 1021.3 |
| 20260503195502 | 13 | 341 | 1.6 | 6.4 | 0.00 | 0.00 | 0.00 | 85 | 1021.3 |
| 20260503195002 | 13 | 345 | 3.2 | 6.4 | 0.00 | 0.00 | 0.00 | 85 | 1021.2 |
| 20260503194502 | 13 | 346 | 3.2 | 6.4 | 0.00 | 0.00 | 0.00 | 85 | 1021.3 |
| 20260503194002 | 13 | 349 | 3.2 | 6.4 | 0.00 | 0.00 | 0.00 | 85 | 1021.2 |
| 20260503193502 | 13 | 359 | 3.2 | 6.4 | 0.00 | 0.00 | 0.00 | 85 | 1021.3 |
| 20260503193002 | 13 | 5 | 4.8 | 8.0 | 0.00 | 0.00 | 0.00 | 85 | 1021.3 |
| 20260503192502 | 13 | 6 | 4.8 | 8.0 | 0.00 | 0.00 | 0.00 | 85 | 1021.3 |
| 20260503192002 | 13 | 2 | 4.8 | 8.0 | 0.00 | 0.00 | 0.00 | 85 | 1021.2 |
| 20260503191502 | 13 | 2 | 4.8 | 8.0 | 0.00 | 0.00 | 0.00 | 85 | 1021.3 |
| 20260503191002 | 13 | 11 | 4.8 | 8.0 | 0.00 | 0.00 | 0.00 | 85 | 1021.2 |
| 20260503190503 | 13 | 17 | 4.8 | 9.7 | 0.00 | 0.00 | 0.00 | 85 | 1021.2 |
| 20260503190002 | 13 | 16 | 4.8 | 9.7 | 0.00 | 0.00 | 0.00 | 84 | 1021.1 |
| 20260503185503 | 13 | 8 | 4.8 | 8.0 | 0.00 | 0.00 | 0.00 | 84 | 1021.1 |
| 20260503185002 | 13 | 6 | 4.8 | 8.0 | 0.00 | 0.00 | 0.00 | 84 | 1021.2 |
| 20260503184502 | 13 | 13 | 4.8 | 8.0 | 0.00 | 0.00 | 0.00 | 83 | 1021.0 |
| 20260503184002 | 13 | 18 | 4.8 | 9.7 | 0.00 | 0.00 | 0.00 | 83 | 1021.1 |
| 20260503183502 | 13 | 15 | 4.8 | 11.3 | 0.00 | 0.00 | 0.00 | 83 | 1021.0 |
| 20260503183002 | 13 | 9 | 4.8 | 11.3 | 0.00 | 0.00 | 0.00 | 83 | 1021.0 |
| 20260503182502 | 13 | 14 | 4.8 | 9.7 | 0.00 | 0.00 | 0.00 | 82 | 1020.9 |
| 20260503182002 | 13 | 12 | 4.8 | 9.7 | 0.00 | 0.00 | 0.00 | 82 | 1020.8 |
| 20260503181503 | 14 | 13 | 4.8 | 9.7 | 0.00 | 0.00 | 0.00 | 82 | 1020.9 |
| 20260503181002 | 14 | 14 | 4.8 | 11.3 | 0.00 | 0.00 | 0.00 | 81 | 1021.0 |
| 20260503180503 | 14 | 4 | 4.8 | 11.3 | 0.00 | 0.00 | 0.00 | 80 | 1020.8 |
| 20260503180002 | 14 | 10 | 6.4 | 11.3 | 0.00 | 0.00 | 0.00 | 79 | 1020.8 |
| 20260503175502 | 15 | 22 | 4.8 | 11.3 | 0.00 | 0.00 | 0.00 | 78 | 1020.9 |
| 20260503175002 | 15 | 19 | 4.8 | 9.7 | 0.00 | 0.00 | 0.00 | 77 | 1020.8 |
| 20260503174502 | 15 | 24 | 4.8 | 11.3 | 0.00 | 0.00 | 0.00 | 76 | 1020.9 |
| 20260503174002 | 15 | 39 | 4.8 | 11.3 | 0.00 | 0.00 | 0.00 | 76 | 1021.0 |
| 20260503173502 | 15 | 36 | 6.4 | 14.5 | 0.00 | 0.00 | 0.00 | 75 | 1020.9 |
| 20260503173002 | 15 | 36 | 8.0 | 14.5 | 0.00 | 0.00 | 0.00 | 73 | 1021.0 |
| 20260503172502 | 15 | 41 | 8.0 | 11.3 | 0.00 | 0.00 | 0.00 | 72 | 1020.8 |
| 20260503172002 | 15 | 37 | 6.4 | 11.3 | 0.00 | 0.00 | 0.00 | 70 | 1020.8 |
| 20260503171502 | 15 | 38 | 8.0 | 12.9 | 0.00 | 0.00 | 0.00 | 68 | 1020.8 |
| 20260503171002 | 15 | 37 | 8.0 | 14.5 | 0.00 | 0.00 | 0.00 | 66 | 1020.7 |
| 20260503170502 | 15 | 40 | 8.0 | 14.5 | 0.00 | 0.00 | 0.00 | 65 | 1020.8 |